This is the latest recevied weather packets stored in our database for station/object KE0FIN. If no packets are shown the sender has not sent any weather packets the latest 10 day(s).
| Time | Temp. | Humidity | Pressure | Rain* | Wind** | Luminosity | Snow |
|---|---|---|---|---|---|---|---|
| 1777917796 | 26.11° C | 42% | 1055.3 hPa | 0 mm | - | 185 W/m² | - |
| 1777917494 | 26.11° C | 40% | 1055.3 hPa | 0 mm | - | 224 W/m² | - |
| 1777917191 | 26.11° C | 40% | 1055.2 hPa | 0 mm | - | 209 W/m² | - |
| 1777916889 | 26.67° C | 38% | 1055.4 hPa | 0 mm | - | 289 W/m² | - |
| 1777916586 | 26.67° C | 39% | 1055.5 hPa | 0 mm | - | 219 W/m² | - |
| 1777916282 | 26.67° C | 41% | 1055.5 hPa | 0 mm | - | 251 W/m² | - |
| 1777915979 | 26.11° C | 39% | 1055.4 hPa | 0 mm | - | 169 W/m² | - |
| 1777915676 | 26.67° C | 40% | 1055.6 hPa | 0 mm | - | 110 W/m² | - |
| 1777915373 | 26.11° C | 41% | 1055.3 hPa | 0 mm | - | 113 W/m² | - |
| 1777915069 | 25.56° C | 42% | 1055.4 hPa | 0 mm | - | 118 W/m² | - |
| 1777914766 | 25.56° C | 41% | 1055.6 hPa | 0 mm | - | 118 W/m² | - |
| 1777914463 | 25° C | 42% | 1055.6 hPa | 0 mm | - | 109 W/m² | - |
| 1777914160 | 25° C | 43% | 1055.6 hPa | 0 mm | - | 95 W/m² | - |
| 1777913856 | 24.44° C | 43% | 1055.7 hPa | 0 mm | - | 76 W/m² | - |
| 1777913553 | 24.44° C | 44% | 1055.7 hPa | 0 mm | - | 63 W/m² | - |
| 1777913249 | 23.89° C | 45% | 1055.5 hPa | 0 mm | - | 62 W/m² | - |
| 1777912947 | 23.89° C | 46% | 1055.8 hPa | 0 mm | - | 82 W/m² | - |
| 1777912642 | 23.89° C | 46% | 1055.8 hPa | 0 mm | - | 75 W/m² | - |
| 1777912338 | 23.89° C | 46% | 1055.8 hPa | 0 mm | - | 60 W/m² | - |
| 1777912034 | 23.33° C | 46% | 1055.7 hPa | 0 mm | - | 212 W/m² | - |
| 1777911730 | 23.89° C | 46% | 1055.3 hPa | 0 mm | - | 55 W/m² | - |
| 1777911428 | 23.89° C | 46% | 1055.6 hPa | 0 mm | - | 144 W/m² | - |
| 1777911125 | 23.33° C | 47% | 1055.5 hPa | 0 mm | - | 77 W/m² | - |
| 1777910822 | 23.33° C | 47% | 1055.5 hPa | 0 mm | - | 81 W/m² | - |
| 1777910519 | 22.78° C | 50% | 1055.6 hPa | 0 mm | - | 102 W/m² | - |
* Rain latest hour (hover to see other rain measurements)
** Current wind speed in m/s (hover to see current wind gust speed)